Powrót do katalogu

STARLINK-4345

AktywnyŁącznośćSSO
NORAD 53049·PAYLOAD·🇺🇸 United States

Wystrzelony Jul 11, 2022 z Vandenberg Space Force Base

Loading…

Następne Przeloty (najbliższe 24 godziny)

TLE

ŚwieżeSource: CelesTrak SupGP

Epoka: Sep 14, 2026, 21:01 UTC

1 53049C 22077G   26257.87618056  .00086481  00000+0  26846-2 0  2573
2 53049  97.2852  72.7368 0001556  94.3794 323.4946 15.33395201    16

Śledź STARLINK-4345 w czasie rzeczywistym z AllMySat

Download on the App Store